This is the latest recevied weather packets stored in our database for station/object W4JCW. If no packets are shown the sender has not sent any weather packets the latest 10 day(s).
| Time | Temp. | Humidity | Pressure | Rain* | Wind** | Luminosity | Snow |
|---|---|---|---|---|---|---|---|
| 1777936432 | 23.89° C | 37% | 1012.8 hPa | 0 mm | - | 36 W/m² | - |
| 1777936129 | 24.44° C | 37% | 1012.8 hPa | 0 mm | - | 44 W/m² | - |
| 1777935826 | 24.44° C | 37% | 1012.6 hPa | 0 mm | - | 53 W/m² | - |
| 1777935525 | 24.44° C | 35% | 1012.7 hPa | 0 mm | - | 61 W/m² | - |
| 1777935221 | 24.44° C | 36% | 1012.7 hPa | 0 mm | - | 58 W/m² | - |
| 1777934919 | 24.44° C | 35% | 1012.7 hPa | 0 mm | - | 53 W/m² | - |
| 1777934615 | 25° C | 35% | 1012.4 hPa | 0 mm | - | 46 W/m² | - |
| 1777934312 | 25° C | 35% | 1012.7 hPa | 0 mm | - | 63 W/m² | - |
| 1777934008 | 25.56° C | 35% | 1012.9 hPa | 0 mm | - | 71 W/m² | - |
| 1777933704 | 25.56° C | 34% | 1012.8 hPa | 0 mm | - | 82 W/m² | - |
| 1777933401 | 25.56° C | 34% | 1012.6 hPa | 0 mm | - | 92 W/m² | - |
| 1777933100 | 25.56° C | 34% | 1012.7 hPa | 0 mm | - | 205 W/m² | - |
| 1777932796 | 26.11° C | 33% | 1012.8 hPa | 0 mm | - | 136 W/m² | - |
| 1777932493 | 26.11° C | 33% | 1012.8 hPa | 0 mm | - | 201 W/m² | - |
| 1777932190 | 26.11° C | 32% | 1012.7 hPa | 0 mm | - | 235 W/m² | - |
| 1777931888 | 26.11° C | 31% | 1012.4 hPa | 0 mm | - | 301 W/m² | - |
| 1777931583 | 26.67° C | 31% | 1012.5 hPa | 0 mm | - | 330 W/m² | - |
| 1777931280 | 26.67° C | 31% | 1012.6 hPa | 0 mm | - | 344 W/m² | - |
| 1777930976 | 26.67° C | 31% | 1012.5 hPa | 0 mm | - | 361 W/m² | - |
| 1777930673 | 26.67° C | 31% | 1012.5 hPa | 0 mm | - | 388 W/m² | - |
| 1777930369 | 26.67° C | 31% | 1012.7 hPa | 0 mm | - | 404 W/m² | - |
| 1777930066 | 26.67° C | 32% | 1012.5 hPa | 0 mm | - | 408 W/m² | - |
| 1777929763 | 26.67° C | 30% | 1012.6 hPa | 0 mm | - | 429 W/m² | - |
| 1777929460 | 26.67° C | 32% | 1012.5 hPa | 0 mm | - | 461 W/m² | - |
| 1777929156 | 26.67° C | 29% | 1012.6 hPa | 0 mm | - | 461 W/m² | - |
* Rain latest hour (hover to see other rain measurements)
** Current wind speed in m/s (hover to see current wind gust speed)